Hobart, OK

7:02 AM CST on November 21, 2017 (GMT -0600)
Hobart Municipal

Weather History for KHBR - October, 2013

Change the Weather History Date:

Thursday, October 3, 2013

  Actual Average Record
Temperature  
Mean Temperature 80 °F -  
Max Temperature 91 °F 77 °F 102 °F (2000)
Min Temperature 69 °F 53 °F 44 °F (1999)
Cooling Degree Days 14    
Growing Degree Days 30 (Base 50)    
Moisture  
Dew Point 66 °F    
Average Humidity 70    
Maximum Humidity 94    
Minimum Humidity 42    
Precipitation  
Precipitation 0.11 in - - ()
Sea Level Pressure  
Sea Level Pressure 29.76 in    
Wind  
Wind Speed 22 mph (South)    
Max Wind Speed 28 mph    
Max Gust Speed 37 mph    
Visibility 10 miles    
Events      
Averages and records for this station are not official NWS values.
T = Trace of Precipitation, MM = Missing Value Source: NWS Daily Summary

Daily Weather History Graph

Daily Weather History Graph

Search for Another Location

Airport or City:

Trip Planner

Search our weather history database for the weather conditions in past years. The results will help you decide how hot, cold, wet, or windy it might be!

Date:

Astronomy

Oct. 03, 2013 Rise Set
Actual Time 7:32 AM CDT 7:16 PM CDT
Civil Twilight 7:07 AM CDT 7:42 PM CDT
Nautical Twilight 6:38 AM CDT 8:11 PM CDT
Astronomical Twilight 6:08 AM CDT 8:40 PM CDT
Moon 6:09 AM CDT (10/3) 6:25 PM CDT (10/3)
Length of Visible Light 12h 34m
Length of Day
11h 44m
Waning Crescent, 2% of the Moon is Illuminated
Oct 3
Waning Crescent
Oct 4
New
Oct 11
First Quarter
Oct 18
Full
Oct 26
Last Quarter

Hourly Weather History & Observations

Time (CDT) Temp. Heat Index Dew Point Humidity Pressure Visibility Wind Dir Wind Speed Gust Speed Precip Events Conditions
12:53 AM 73.9 °F - 66.0 °F 76% 29.80 in 10.0 mi South 19.6 mph 25.3 mph N/A   Clear
1:53 AM 73.0 °F - 66.9 °F 81% 29.79 in 10.0 mi South 21.9 mph - N/A   Clear
2:53 AM 72.0 °F - 68.0 °F 87% 29.78 in 10.0 mi South 20.7 mph 29.9 mph N/A   Clear
3:53 AM 72.0 °F - 68.0 °F 87% 29.77 in 10.0 mi South 19.6 mph - N/A   Clear
4:53 AM 71.1 °F - 68.0 °F 90% 29.77 in 10.0 mi South 20.7 mph - N/A   Clear
5:53 AM 70.0 °F - 68.0 °F 93% 29.77 in 10.0 mi South 19.6 mph - N/A   Clear
6:53 AM 70.0 °F - 68.0 °F 93% 29.79 in 10.0 mi South 21.9 mph - N/A   Clear
7:35 AM 69.8 °F - 68.0 °F 94% 29.85 in 10.0 mi South 16.1 mph - N/A   Partly Cloudy
7:53 AM 70.0 °F - 68.0 °F 93% 29.80 in 9.0 mi South 19.6 mph - N/A   Partly Cloudy
8:53 AM 72.0 °F - 69.1 °F 91% 29.81 in 10.0 mi South 23.0 mph 28.8 mph N/A   Mostly Cloudy
9:38 AM 73.4 °F - 69.8 °F 88% 29.86 in 10.0 mi South 27.6 mph 33.4 mph N/A   Scattered Clouds
9:46 AM 73.4 °F - 69.8 °F 88% 29.86 in 10.0 mi South 26.5 mph 33.4 mph N/A   Mostly Cloudy
9:53 AM 75.0 °F - 69.1 °F 82% 29.81 in 10.0 mi South 26.5 mph - N/A   Scattered Clouds
10:53 AM 79.0 °F - 68.0 °F 69% 29.80 in 10.0 mi South 25.3 mph 31.1 mph N/A   Scattered Clouds
11:53 AM 82.0 °F 84.5 °F 66.9 °F 60% 29.78 in 10.0 mi SSW 25.3 mph 33.4 mph 0.11 in   Partly Cloudy
12:53 PM 84.0 °F 86.3 °F 66.0 °F 55% 29.77 in 10.0 mi SSW 26.5 mph 34.5 mph N/A   Clear
1:53 PM 86.0 °F 88.8 °F 66.9 °F 53% 29.75 in 10.0 mi South 23.0 mph 34.5 mph N/A   Partly Cloudy
2:53 PM 88.0 °F 90.3 °F 66.0 °F 48% 29.71 in 10.0 mi South 21.9 mph 33.4 mph N/A   Clear
3:53 PM 90.0 °F 91.7 °F 64.9 °F 43% 29.69 in 10.0 mi South 25.3 mph 36.8 mph N/A   Clear
4:53 PM 90.0 °F 91.3 °F 64.0 °F 42% 29.67 in 10.0 mi South 27.6 mph 33.4 mph N/A   Clear
5:53 PM 89.1 °F 90.3 °F 64.0 °F 43% 29.66 in 10.0 mi South 27.6 mph 34.5 mph N/A   Clear
6:53 PM 86.0 °F 86.3 °F 62.1 °F 44% 29.67 in 10.0 mi South 21.9 mph - N/A   Clear
7:53 PM 82.9 °F 83.7 °F 62.1 °F 49% 29.68 in 10.0 mi South 17.3 mph - N/A   Clear
8:53 PM 81.0 °F 82.2 °F 63.0 °F 54% 29.68 in 10.0 mi South 18.4 mph - N/A   Clear
9:53 PM 81.0 °F 81.9 °F 62.1 °F 52% 29.70 in 10.0 mi South 21.9 mph - N/A   Clear
11:53 PM 78.1 °F - 64.0 °F 62% 29.72 in 10.0 mi South 20.7 mph 29.9 mph N/A   Clear